timestamp,surface_pressure_avg,surface_temp_avg,battery_voltage,lat,long
2022-08-14 00:09:00+00:00,369.9479,18.94,11.77,47.84626,-54.09684
2022-08-14 00:19:00+00:00,375.1545,19.0,11.7,47.84626,-54.09684
2022-08-14 00:29:00+00:00,377.0512,18.53,11.7,47.84626,-54.09684
2022-08-14 00:39:00+00:00,380.3662,18.56,11.7,47.84626,-54.09684
2022-08-14 00:49:00+00:00,385.353,18.97,11.7,47.84626,-54.09684
2022-08-14 00:59:00+00:00,386.1128,18.86,11.7,47.84626,-54.09684
2022-08-14 01:09:00+00:00,387.2028,17.6,11.7,47.84626,-54.09684
2022-08-14 01:19:00+00:00,388.7628,18.05,11.7,47.84626,-54.09684
2022-08-14 01:29:00+00:00,387.6495,18.88,11.7,47.84626,-54.09684
2022-08-14 01:39:00+00:00,384.18300000000005,18.67,11.7,47.84626,-54.09684
2022-08-14 01:49:00+00:00,378.6879,18.46,11.7,47.84626,-54.09684
2022-08-14 01:59:00+00:00,371.5129,19.0,11.7,47.84626,-54.09684
2022-08-14 02:09:00+00:00,366.9498,19.1,11.7,47.84626,-54.09684
2022-08-14 02:19:00+00:00,367.3347,18.8,11.7,47.84626,-54.09684
2022-08-14 02:29:00+00:00,362.6329,18.25,11.7,47.84626,-54.09684
2022-08-14 02:39:00+00:00,356.7361,18.84,11.7,47.84626,-54.09684
2022-08-14 02:49:00+00:00,353.0197,19.0,11.7,47.84626,-54.09684
2022-08-14 02:59:00+00:00,344.8796,19.08,11.7,47.84626,-54.09684
2022-08-14 03:09:00+00:00,334.9114,19.1,11.7,47.84626,-54.09684
2022-08-14 03:19:00+00:00,329.598,19.1,11.7,47.84626,-54.09684
2022-08-14 03:29:00+00:00,321.5696,19.18,11.7,47.84626,-54.09684
2022-08-14 03:39:00+00:00,311.038,19.1,11.7,47.84626,-54.09684
2022-08-14 03:49:00+00:00,300.5714,19.1,11.7,47.84626,-54.09684
2022-08-14 03:59:00+00:00,287.9247,19.17,11.7,47.84626,-54.09684
2022-08-14 04:09:00+00:00,276.7147,19.29,11.7,47.84626,-54.09684
2022-08-14 04:19:00+00:00,267.5114,19.47,11.7,47.84626,-54.09684
2022-08-14 04:29:00+00:00,256.9281,19.5,11.7,47.84626,-54.09684
2022-08-14 04:39:00+00:00,244.5364,19.55,11.7,47.84626,-54.09684
2022-08-14 04:49:00+00:00,233.5381,19.6,11.7,47.84626,-54.09684
2022-08-14 04:59:00+00:00,223.1431,19.5,11.7,47.84626,-54.09684
2022-08-14 05:09:00+00:00,211.5981,19.6,11.7,47.84626,-54.09684
2022-08-14 05:19:00+00:00,201.9898,19.6,11.61,47.84626,-54.09684
2022-08-14 05:29:00+00:00,196.4847,19.6,11.61,47.84626,-54.09684
2022-08-14 05:39:00+00:00,188.7381,19.7,11.61,47.84626,-54.09684
2022-08-14 05:49:00+00:00,179.7565,19.75,11.61,47.84626,-54.09684
2022-08-14 05:59:00+00:00,178.7781,19.7,11.61,47.84626,-54.09684
2022-08-14 06:09:00+00:00,177.3548,19.79,11.61,47.84626,-54.09684
2022-08-14 06:19:00+00:00,169.6215,19.8,11.61,47.84626,-54.09684
2022-08-14 06:29:00+00:00,164.2948,19.8,11.61,47.84626,-54.09684
2022-08-14 06:39:00+00:00,164.3665,19.89,11.61,47.84626,-54.09684
2022-08-14 06:49:00+00:00,164.4098,19.9,11.61,47.84626,-54.09684
2022-08-14 06:59:00+00:00,166.1915,19.9,11.61,47.84626,-54.09684
2022-08-14 07:09:00+00:00,172.9198,19.9,11.61,47.84626,-54.09684
2022-08-14 07:19:00+00:00,174.3048,19.9,11.61,47.84626,-54.09684
2022-08-14 07:29:00+00:00,171.0615,19.9,11.61,47.84626,-54.09684
2022-08-14 07:39:00+00:00,173.8582,19.8,11.61,47.84626,-54.09684
2022-08-14 07:49:00+00:00,180.7514,19.4,11.61,47.84626,-54.09684
2022-08-14 07:59:00+00:00,181.5115,19.45,11.61,47.84626,-54.09684
2022-08-14 08:09:00+00:00,180.7548,19.42,11.61,47.84626,-54.09684
2022-08-14 08:19:00+00:00,187.8065,18.92,11.61,47.84626,-54.09684
2022-08-14 08:29:00+00:00,192.1764,19.33,11.61,47.84626,-54.09684
2022-08-14 08:39:00+00:00,191.3597,19.5,11.61,47.84626,-54.09684
2022-08-14 08:49:00+00:00,196.0281,19.23,11.61,47.84626,-54.09684
2022-08-14 08:59:00+00:00,202.2498,19.12,11.61,47.84626,-54.09684
2022-08-14 09:09:00+00:00,202.5114,19.22,11.61,47.84626,-54.09684
2022-08-14 09:19:01+00:00,205.6398,19.29,11.61,47.84626,-54.09684
2022-08-14 09:29:01+00:00,214.5314,19.3,11.61,47.84626,-54.09684
2022-08-14 09:39:01+00:00,218.1065,19.33,11.61,47.84626,-54.09684
2022-08-14 09:49:01+00:00,216.0215,19.35,11.61,47.84626,-54.09684
2022-08-14 09:59:01+00:00,223.2814,19.36,11.61,47.84626,-54.09684
2022-08-14 10:09:01+00:00,234.8998,19.3,11.61,47.84626,-54.09684
2022-08-14 10:19:00+00:00,237.303,19.3,11.61,47.84626,-54.09684
2022-08-14 10:29:00+00:00,240.5164,18.88,11.61,47.84626,-54.09684
2022-08-14 10:39:00+00:00,250.4231,18.79,11.61,47.84626,-54.09684
2022-08-14 10:49:00+00:00,258.5181,18.7,11.61,47.84626,-54.09684
2022-08-14 10:59:00+00:00,264.0581,18.7,11.61,47.84626,-54.09684
2022-08-14 11:09:00+00:00,274.0831,18.6,11.61,47.84626,-54.09684
2022-08-14 11:19:00+00:00,286.3564,18.5,11.61,47.84626,-54.09684
2022-08-14 11:29:00+00:00,292.8047,18.5,11.61,47.84626,-54.09684
2022-08-14 11:39:00+00:00,298.5763,18.5,11.61,47.84626,-54.09684
2022-08-14 11:49:00+00:00,308.1464,18.5,11.61,47.84626,-54.09684
2022-08-14 11:59:00+00:00,318.843,18.5,11.61,47.84626,-54.09684
2022-08-14 12:09:00+00:00,325.2513,18.51,11.61,47.84626,-54.09684
2022-08-14 12:19:00+00:00,331.208,18.51,11.61,47.84626,-54.09684
2022-08-14 12:29:00+00:00,340.3146,18.5,11.61,47.84626,-54.09684
2022-08-14 12:39:00+00:00,346.7013,18.4,11.61,47.84626,-54.09684
2022-08-14 12:49:00+00:00,347.2996,18.3,11.61,47.84626,-54.09684
2022-08-14 12:59:00+00:00,346.8863,18.09,11.61,47.84626,-54.09684
2022-08-14 13:09:00+00:00,350.7296,17.8,11.61,47.84626,-54.09684
2022-08-14 13:19:00+00:00,352.0862,18.12,11.61,47.84626,-54.09684
2022-08-14 13:29:00+00:00,351.4447,18.1,11.61,47.84626,-54.09684
2022-08-14 13:39:00+00:00,354.8345,17.35,11.61,47.84626,-54.09684
2022-08-14 13:49:00+00:00,353.1063,17.65,11.61,47.84626,-54.09684
2022-08-14 13:59:00+00:00,348.17800000000005,18.48,11.61,47.84626,-54.09684
2022-08-14 14:09:00+00:00,346.2845,18.55,11.61,47.84626,-54.09684
2022-08-14 14:19:00+00:00,344.218,18.6,11.61,47.84626,-54.09684
2022-08-14 14:29:00+00:00,339.4396,18.71,11.61,47.84626,-54.09684
2022-08-14 14:39:00+00:00,334.7546,18.8,11.61,47.84626,-54.09684
2022-08-14 14:49:00+00:00,333.1230000000001,18.67,11.61,47.84626,-54.09684
2022-08-14 14:59:00+00:00,329.7513,18.72,11.61,47.84626,-54.09684
2022-08-14 15:09:00+00:00,320.3879,18.88,11.61,47.84626,-54.09684
2022-08-14 15:19:00+00:00,315.6145,18.89,11.7,47.84626,-54.09684
2022-08-14 15:29:00+00:00,312.1547,18.89,11.7,47.84626,-54.09684
2022-08-14 15:39:00+00:00,305.4097,18.9,11.7,47.84626,-54.09684
2022-08-14 15:49:00+00:00,295.1931,18.98,11.7,47.84626,-54.09684
2022-08-14 15:59:00+00:00,289.7264,19.01,11.7,47.84626,-54.09684
2022-08-14 16:09:00+00:00,284.1397,19.09,11.7,47.84626,-54.09684
2022-08-14 16:19:01+00:00,272.0447,19.1,11.7,47.84626,-54.09684
2022-08-14 16:29:01+00:00,259.2814,19.1,11.7,47.84626,-54.09684
2022-08-14 16:39:01+00:00,250.6297,19.1,11.7,47.84626,-54.09684
2022-08-14 16:49:01+00:00,241.9747,19.1,11.7,47.84626,-54.09684
2022-08-14 16:59:01+00:00,230.9848,19.0,11.7,47.84626,-54.09684
2022-08-14 17:09:01+00:00,219.4098,19.0,11.7,47.84626,-54.09684
2022-08-14 17:19:00+00:00,208.4148,19.0,11.77,47.84626,-54.09684
2022-08-14 17:29:00+00:00,198.3031,18.9,11.77,47.84626,-54.09684
2022-08-14 17:39:00+00:00,190.6531,18.9,11.77,47.84626,-54.09684
2022-08-14 17:49:00+00:00,184.3081,18.8,11.77,47.84626,-54.09684
2022-08-14 17:59:00+00:00,177.5014,18.8,11.77,47.84626,-54.09684
2022-08-14 18:09:00+00:00,172.7748,18.87,11.77,47.84626,-54.09684
2022-08-14 18:19:00+00:00,167.8881,18.86,11.77,47.84626,-54.09684
2022-08-14 18:29:00+00:00,161.6231,18.87,11.77,47.84626,-54.09684
2022-08-14 18:39:00+00:00,160.7498,18.9,11.77,47.84626,-54.09684
2022-08-14 18:49:00+00:00,159.7948,18.97,11.77,47.84626,-54.09684
2022-08-14 18:59:00+00:00,157.9933,18.98,11.77,47.84626,-54.09684
2022-08-14 19:09:00+00:00,160.0181,19.0,11.77,47.84626,-54.09684
2022-08-14 19:19:01+00:00,161.6331,19.1,11.7,47.84626,-54.09684
2022-08-14 19:29:01+00:00,161.5965,19.2,11.7,47.84626,-54.09684
2022-08-14 19:39:01+00:00,165.2082,19.29,11.7,47.84626,-54.09684
2022-08-14 19:49:01+00:00,168.5315,19.3,11.7,47.84626,-54.09684
2022-08-14 19:59:01+00:00,167.1731,19.3,11.7,47.84626,-54.09684
2022-08-14 20:09:01+00:00,168.5882,19.2,11.7,47.84626,-54.09684
2022-08-14 20:19:00+00:00,174.2415,18.8,11.7,47.84626,-54.09684
2022-08-14 20:29:00+00:00,179.7898,18.7,11.7,47.84626,-54.09684
2022-08-14 20:39:00+00:00,182.9965,18.68,11.7,47.84626,-54.09684
2022-08-14 20:49:00+00:00,184.0015,18.67,11.7,47.84626,-54.09684
2022-08-14 20:59:00+00:00,189.5931,18.69,11.7,47.84626,-54.09684
2022-08-14 21:09:00+00:00,197.5798,18.7,11.7,47.84626,-54.09684
2022-08-14 21:19:00+00:00,200.3914,18.7,11.61,47.84626,-54.09684
2022-08-14 21:29:00+00:00,202.6065,18.78,11.61,47.84626,-54.09684
2022-08-14 21:39:00+00:00,208.7631,18.82,11.61,47.84626,-54.09684
2022-08-14 21:49:00+00:00,214.7814,18.9,11.61,47.84626,-54.09684
2022-08-14 21:59:00+00:00,219.0498,18.9,11.61,47.84626,-54.09684
2022-08-14 22:09:00+00:00,225.5815,18.89,11.61,47.84626,-54.09684
2022-08-14 22:19:00+00:00,233.6281,18.7,11.61,47.84626,-54.09684
2022-08-14 22:29:00+00:00,239.2198,18.6,11.61,47.84626,-54.09684
2022-08-14 22:39:00+00:00,243.8848,18.6,11.61,47.84626,-54.09684
2022-08-14 22:49:00+00:00,252.1814,18.64,11.61,47.84626,-54.09684
2022-08-14 22:59:00+00:00,263.2298,18.66,11.61,47.84626,-54.09684
2022-08-14 23:09:00+00:00,271.5131,18.67,11.61,47.84626,-54.09684
2022-08-14 23:19:00+00:00,276.0298,18.5,11.61,47.84626,-54.09684
2022-08-14 23:29:00+00:00,285.9347,18.15,11.61,47.84626,-54.09684
2022-08-14 23:39:00+00:00,298.1146,18.21,11.61,47.84626,-54.09684
2022-08-14 23:49:00+00:00,306.0497,18.3,11.61,47.84626,-54.09684
2022-08-14 23:59:00+00:00,312.1313,18.1,11.61,47.84626,-54.09684
